Location: Terni
(42.5670°N, 12.6170°E)
Time: 13:27:36
(UTC+01:00)

ISS - Visible Passes

Search period start: 24 January 2019 00:00
Search period end: 03 February 2019 00:00
Orbit: 404 x 410 km, 51.6° (Epoch: 24 January)

Date Brightness Start Highest point End Pass type
(mag) Time Alt. Az. Time Alt. Az. Time Alt. Az.
24 Jan -2.7 17:46:12 10° SSW 17:49:08 30° SE 17:52:04 10° ENE visible
24 Jan -2.1 19:22:29 10° W 19:24:47 32° WNW 19:24:47 32° WNW visible
25 Jan -3.5 18:30:54 10° WSW 18:34:10 62° NNW 18:35:41 28° NE visible
26 Jan -1.9 19:16:50 10° WNW 19:19:13 23° NNW 19:19:13 23° NNW visible
27 Jan -2.5 18:25:01 10° W 18:28:02 32° NNW 18:30:00 18° NNE visible
28 Jan -1.6 19:11:13 10° NW 19:13:26 18° NNW 19:13:26 18° NNW visible
29 Jan -1.9 18:19:20 10° WNW 18:21:59 22° NNW 18:24:07 13° NNE visible
30 Jan -1.6 19:05:26 10° NW 19:07:30 17° N 19:07:30 17° N visible
31 Jan -1.7 18:13:39 10° NW 18:15:59 17° N 18:18:09 11° NE visible
31 Jan -0.6 19:50:46 10° NW 19:50:52 11° NW 19:50:52 11° NW visible
01 Feb -1.8 18:59:18 10° NW 19:01:32 18° N 19:01:32 18° N visible
02 Feb -1.7 18:07:42 10° NW 18:09:57 17° N 18:12:12 10° NE visible
02 Feb -1.0 19:44:14 10° NW 19:44:55 14° NW 19:44:55 14° NW visible
